This is the latest recevied weather packets stored in our database for station/object DM0MR. If no packets are shown the sender has not sent any weather packets the latest 10 day(s).
| Time | Temp. | Humidity | Pressure | Rain* | Wind** | Luminosity | Snow |
|---|---|---|---|---|---|---|---|
| 1777606891 | 3.33° C | 89% | 1019.3 hPa | 0 mm | - | - | - |
| 1777603292 | 3.33° C | 87% | 1019.5 hPa | 0 mm | - | - | - |
| 1777602392 | 3.33° C | 87% | 1019.4 hPa | 0 mm | - | - | - |
| 1777601490 | 3.89° C | 87% | 1019.4 hPa | 0 mm | - | - | - |
| 1777600591 | 3.89° C | 87% | 1019.3 hPa | 0 mm | - | - | - |
| 1777597890 | 4.44° C | 84% | 1019.5 hPa | 0 mm | - | - | - |
| 1777595190 | 5.56° C | 80% | 1019.4 hPa | 0 mm | - | - | - |
| 1777594292 | 5.56° C | 80% | 1019.3 hPa | 0 mm | - | - | - |
| 1777593391 | 5.56° C | 79% | 1019.3 hPa | 0 mm | - | - | - |
| 1777590692 | 6.11° C | 77% | 1019.3 hPa | 0 mm | - | - | - |
| 1777589790 | 6.11° C | 76% | 1019.5 hPa | 0 mm | - | - | - |
| 1777588890 | 6.67° C | 76% | 1019.6 hPa | 0 mm | - | - | - |
| 1777587991 | 6.67° C | 75% | 1019.6 hPa | 0 mm | - | - | - |
| 1777587090 | 7.22° C | 74% | 1019.6 hPa | 0 mm | - | - | - |
| 1777586192 | 7.22° C | 74% | 1019.6 hPa | 0 mm | - | - | - |
| 1777585290 | 7.22° C | 74% | 1019.6 hPa | 0 mm | - | - | - |
| 1777584391 | 7.22° C | 73% | 1019.4 hPa | 0 mm | - | - | - |
| 1777583490 | 7.22° C | 73% | 1019.5 hPa | 0 mm | - | - | - |
| 1777582590 | 7.78° C | 72% | 1019.4 hPa | 0 mm | - | - | - |
| 1777581691 | 7.78° C | 72% | 1019.5 hPa | 0 mm | - | - | - |
| 1777580790 | 7.78° C | 71% | 1019.5 hPa | 0 mm | - | - | - |
| 1777579893 | 8.33° C | 69% | 1019.6 hPa | 0 mm | - | - | - |
| 1777578990 | 8.89° C | 68% | 1019.3 hPa | 0 mm | - | - | - |
| 1777578090 | 9.44° C | 66% | 1019.4 hPa | 0 mm | - | - | - |
| 1777577191 | 9.44° C | 65% | 1019.3 hPa | 0 mm | - | - | - |
* Rain latest hour (hover to see other rain measurements)
** Current wind speed in m/s (hover to see current wind gust speed)